Location: Quedlinburg
(51.7921°N, 11.1414°E)
Time: 08:53:57
(UTC+02:00)

RS-44 - Pass Details

Date: 15 March 2026
Orbit: 1175 x 1510 km, 82.5° (Epoch: 13 April)

Event Time Altitude Azimuth Distance (km) Brightness Sun altitude
Rises 04:08:28 0° 345° (NNW) 4,378 ? -22.0°
Reaches altitude 10° 04:11:27 10° 338° (NNW) 3,448 ? -21.6°
Maximum altitude 04:18:41 35° 276° (W) 2,143 ? -20.6°
Enters shadow 04:21:07 30° 246° (WSW) 2,356 ? -20.3°
